User: anonymous   Login
Location: Unspecified
(0.0000°N, 0.0000°E)
Time: 02:01:08
(UTC+00:00)
Language:

deb r/b Ablestar - Orbit

View from above orbital plane
View from above orbital plane
View from above satellite
View from above satellite

Ground track
Ground track

The orbit data is extracted from the following two-line orbital elements,

1 00335U 61015DM  16151.35290016  .00000446  00000-0  26223-3 0  9996
2 00335  66.8401 133.2976 0042380 350.4843   9.5441 14.16506686807262
Epoch (UTC): 30 May 2016 08:28:10
Eccentricity: 0.0042380
inclination: 66.8401°
perigee height: 806 km
apogee height: 868 km
right ascension of ascending node: 133.2976°
argument of perigee: 350.4843°
revolutions per day: 14.16506686
mean anomaly at epoch: 9.5441°
orbit number at epoch: 80726

The dashed part of the orbit path shows where the satellite is in the earth's shadow,  

DLR